DateTimeUTC,F1_A11,F1_S11,BsB_S11,BsG_S11,BsR_S11,BbsB_S11,BbsG_S11,BbsR_S11,BaB_A11,BaG_A11,BaR_A11,Tu_S11,T_S11,Uu_S11,U_S11,P_S11,T1_A11
2021-06-23T06:00:00Z,00040200,20000000,,,,,,,-000.04,-000.25,-000.39,17.9,24.7,04.4,02.9,0676.4,31.0
2021-06-23T06:01:00Z,00040200,20000000,,,,,,,-000.09,0000.10,-000.03,18.0,24.7,04.2,02.8,0676.4,31.1
2021-06-23T06:02:00Z,00040200,20000000,,,,,,,-000.32,-000.27,-000.07,18.0,24.8,04.2,02.8,0676.4,31.1
2021-06-23T06:03:00Z,00040200,60000000,,,,,,,-000.13,-000.22,-000.01,18.0,24.8,04.2,02.8,0676.4,31.1
2021-06-23T06:04:00Z,00040200,40000000,0001.18,0000.65,0000.66,0000.50,-000.10,-000.05,0000.51,0000.63,0000.45,18.2,24.7,04.1,02.8,0677.4,31.1
2021-06-23T06:05:00Z,00040200,00000000,0001.56,0001.02,0000.56,0000.19,0000.50,0000.10,0000.26,0000.44,0000.42,18.2,24.6,04.1,02.8,0677.5,31.0
2021-06-23T06:06:00Z,00040200,00000000,0001.53,0000.74,0000.37,0000.60,0000.32,-000.47,0000.59,0000.32,0000.11,18.2,24.6,04.1,02.8,0677.5,31.1
2021-06-23T06:07:00Z,00040200,00000000,0001.05,0001.00,0000.54,-000.04,0000.28,0000.17,0000.41,0000.09,0000.40,18.2,24.6,04.1,02.8,0677.5,31.1
2021-06-23T06:08:00Z,00040200,00000000,0001.54,0000.67,0000.46,-000.10,0000.02,0000.19,0000.45,0000.57,0000.63,18.1,24.6,03.9,02.7,0677.5,31.0
2021-06-23T06:09:00Z,00040200,00000000,0000.65,0000.92,0000.44,0000.69,0000.22,-000.21,0000.47,0001.03,0000.15,18.1,24.5,04.0,02.7,0677.6,31.1
2021-06-23T06:10:00Z,00040200,00000000,0001.59,0000.75,0000.67,0000.16,0000.21,-000.10,0000.19,-000.12,0000.09,18.1,24.5,04.0,02.7,0677.6,31.0
2021-06-23T06:11:00Z,00040200,00000000,0001.19,0000.88,0000.54,0000.86,0000.18,-000.12,0001.66,0001.28,0000.76,18.1,24.5,04.0,02.7,0677.6,31.0
2021-06-23T06:12:00Z,00040200,00000000,0002.10,0000.76,0000.58,0000.47,0000.19,0000.14,0002.17,0002.10,0001.89,18.1,24.5,04.0,02.7,0677.6,31.0
2021-06-23T06:13:00Z,00040200,00000000,0001.50,0000.91,0000.76,0000.76,0000.10,0000.19,0002.71,0002.14,0002.12,18.1,24.5,04.0,02.7,0677.6,31.0
2021-06-23T06:14:00Z,00040200,00000000,0001.25,0000.70,0000.78,0000.32,0000.03,-000.10,0001.62,0001.57,0000.88,18.1,24.5,03.9,02.6,0677.6,31.0
2021-06-23T06:15:00Z,00040200,00000000,0000.96,0000.87,0000.68,0000.02,0000.28,0000.17,-000.01,0000.59,0000.55,18.2,24.5,03.9,02.7,0677.6,31.1
2021-06-23T06:16:00Z,00040200,00000000,0001.41,0000.74,0000.45,0000.39,0000.12,-000.16,0000.43,0000.03,0000.02,18.2,24.6,03.8,02.6,0677.6,31.1
2021-06-23T06:17:00Z,00040200,00000000,0001.30,0000.93,0000.72,0001.07,0000.41,-000.03,0000.49,0000.39,0000.52,18.2,24.6,03.9,02.6,0677.6,31.1
2021-06-23T06:18:00Z,00040200,00000000,0001.12,0001.22,0000.25,0000.31,0000.09,0000.16,0000.64,0000.67,0000.37,18.2,24.6,03.9,02.6,0677.7,31.1
2021-06-23T06:19:00Z,00040200,00000000,0001.55,0000.92,0000.63,0000.78,0000.39,-000.09,0000.61,0000.36,0000.65,18.2,24.6,03.9,02.7,0677.7,31.1
2021-06-23T06:20:00Z,00040200,00000000,0000.90,0001.17,0000.44,0000.83,0000.61,-000.14,0000.58,0000.94,0000.06,18.2,24.5,04.1,02.8,0677.7,31.1
2021-06-23T06:21:00Z,00040200,00000000,0001.45,0000.85,0000.33,0000.52,0000.35,0000.07,0000.44,0000.24,0000.48,18.1,24.5,04.0,02.7,0677.7,31.0
2021-06-23T06:22:00Z,00040200,00000000,0001.91,0000.80,0000.64,-000.04,0000.61,0000.15,0000.67,0000.68,0000.49,18.1,24.5,04.0,02.7,0677.6,31.0
2021-06-23T06:23:00Z,00040200,00000000,0001.34,0001.00,0000.71,0000.48,0000.62,0000.16,0000.43,0000.37,0000.29,18.1,24.5,03.9,02.6,0677.6,31.0
2021-06-23T06:24:00Z,00040200,00000000,0001.59,0000.96,0000.69,0000.48,0000.39,0000.05,0000.57,0000.44,0000.48,18.1,24.5,04.1,02.7,0677.6,31.0
2021-06-23T06:25:00Z,00040200,00000000,0000.76,0001.05,0000.52,0000.72,0000.22,-000.05,0000.10,0000.14,0000.16,18.1,24.4,04.1,02.7,0677.6,31.0
2021-06-23T06:26:00Z,00040200,00000000,0000.81,0000.98,0000.34,0000.57,0000.32,0000.04,0000.86,0000.56,0000.46,18.0,24.4,04.0,02.7,0677.6,31.0
2021-06-23T06:27:00Z,00040200,00000000,0000.57,0001.04,0000.68,0000.33,0000.20,0000.11,0000.80,0000.61,0000.50,18.0,24.4,04.0,02.7,0677.6,31.0
2021-06-23T06:28:00Z,00040200,00000000,0000.68,0000.83,0000.94,0000.78,0000.06,0000.36,0000.42,0000.22,0000.62,18.0,24.4,04.0,02.7,0677.7,31.0
2021-06-23T06:29:00Z,00040200,00000000,0001.24,0001.05,0000.56,0000.69,0000.15,0000.14,0000.43,0000.93,0000.35,18.1,24.4,03.9,02.7,0677.7,31.0
2021-06-23T06:30:00Z,00040200,00000000,0000.85,0001.17,0000.51,0000.54,0000.19,0000.06,0000.50,0000.36,0000.27,18.2,24.5,03.9,02.7,0677.7,31.0
2021-06-23T06:31:00Z,00040200,00000000,0001.74,0000.83,0000.73,0000.46,0000.37,0000.17,0000.14,0000.51,-000.27,18.2,24.5,04.0,02.7,0677.7,31.1
2021-06-23T06:32:00Z,00040200,00000000,0001.32,0000.79,0000.46,-000.03,0000.12,-000.09,0000.66,0000.02,0000.65,18.3,24.5,03.9,02.7,0677.7,31.1
2021-06-23T06:33:00Z,00040200,00000000,0001.96,0000.90,0000.53,0000.36,0000.37,0000.01,0000.21,0000.67,0000.26,18.2,24.5,03.9,02.6,0677.7,31.1
2021-06-23T06:34:00Z,00040200,00000000,0001.49,0001.05,0000.45,0000.85,0000.10,-000.12,0000.51,0000.12,0000.29,18.2,24.5,03.9,02.6,0677.7,31.1
2021-06-23T06:35:00Z,00040200,00000000,0000.86,0000.52,0000.64,0000.33,0000.10,0000.21,0000.40,0000.67,0000.67,18.2,24.5,04.0,02.7,0677.7,31.1
2021-06-23T06:36:00Z,00040200,00000000,0001.04,0001.25,0000.60,0000.31,0000.35,0000.27,0000.57,0000.31,0000.41,18.2,24.5,03.8,02.6,0677.7,31.1
2021-06-23T06:37:00Z,00040200,00000000,0001.08,0001.03,0000.79,0000.59,0000.22,0000.24,0000.69,0000.81,0000.53,18.2,24.5,03.9,02.6,0677.7,31.1
2021-06-23T06:38:00Z,00040200,00000000,0000.56,0000.72,0000.56,0000.63,0000.46,0000.06,0002.12,0002.07,0001.40,18.1,24.5,03.9,02.7,0677.7,31.0
2021-06-23T06:39:00Z,00040200,00000000,0001.07,0000.78,0000.57,0000.72,0000.18,-000.12,0004.09,0003.56,0002.81,18.1,24.4,03.9,02.7,0677.7,31.0
2021-06-23T06:40:00Z,00040200,00000000,0000.89,0000.95,0000.51,0000.77,0000.38,0000.09,0002.28,0001.75,0001.92,18.1,24.4,03.9,02.6,0677.7,31.0
2021-06-23T06:41:00Z,00040200,00000000,0001.38,0000.89,0000.75,0000.47,0000.27,0000.15,0002.70,0002.36,0001.50,18.1,24.4,03.9,02.7,0677.7,31.0
2021-06-23T06:42:00Z,00040200,00000000,0001.21,0000.88,0000.51,0000.80,0000.27,0000.24,0001.73,0001.77,0001.44,18.1,24.4,04.0,02.7,0677.7,31.0
2021-06-23T06:43:00Z,00040200,00000000,0001.55,0001.04,0000.51,0000.80,0000.33,0000.11,0001.16,0001.03,0000.73,18.1,24.4,04.1,02.8,0677.7,31.0
2021-06-23T06:44:00Z,00040200,00000000,0001.36,0001.11,0000.03,0000.59,0000.22,-000.21,0000.90,0001.02,0000.84,18.1,24.4,04.0,02.7,0677.7,31.0
2021-06-23T06:45:00Z,00040200,00000000,0001.05,0001.34,0000.69,0000.78,0000.29,-000.05,0000.81,0000.55,0000.65,18.2,24.5,04.0,02.7,0677.7,31.0
2021-06-23T06:46:00Z,00040200,00000000,0001.21,0000.68,0000.54,0000.43,0000.17,0000.04,0000.31,0000.50,-000.06,18.2,24.5,04.0,02.7,0677.7,31.1
2021-06-23T06:47:00Z,00040200,00000000,0001.25,0000.98,0000.64,0000.71,0000.29,0000.40,0000.86,0000.48,0000.63,18.2,24.5,04.0,02.7,0677.7,31.1
2021-06-23T06:48:00Z,00040200,00000000,0001.65,0001.02,0000.30,0000.18,0000.00,-000.13,0000.48,0000.13,0000.23,18.2,24.5,04.0,02.8,0677.7,31.1
2021-06-23T06:49:00Z,00040200,00000000,0001.03,0000.95,0000.32,0000.68,0000.17,-000.17,0000.59,0001.07,0000.76,18.2,24.5,04.0,02.7,0677.7,31.1
2021-06-23T06:50:00Z,00040200,00000000,0001.45,0000.88,0000.40,0000.11,0000.44,-000.35,0000.98,0000.94,0000.50,18.2,24.5,04.0,02.7,0677.7,31.0
2021-06-23T06:51:00Z,00040200,00000000,0001.28,0000.89,0000.55,-000.06,0000.13,0000.45,0001.38,0001.30,0001.07,18.2,24.4,04.1,02.8,0677.7,31.0
2021-06-23T06:52:00Z,00040200,00000000,0002.20,0001.12,0000.53,0000.30,0000.27,0000.20,0005.90,0005.22,0004.13,18.1,24.4,04.2,02.9,0677.7,31.0
2021-06-23T06:53:00Z,00040200,00000000,0002.64,0001.63,0000.96,0000.68,0000.74,0000.32,0019.64,0018.11,0014.15,18.1,24.4,04.1,02.8,0677.7,31.0
2021-06-23T06:54:00Z,00040200,00000000,0002.04,0001.33,0000.90,0000.63,0000.46,0000.45,0019.49,0017.60,0013.91,18.1,24.4,04.1,02.8,0677.7,31.0
2021-06-23T06:55:00Z,00040200,00000000,0001.47,0001.30,0000.58,0000.92,0000.29,0000.06,0011.28,0010.64,0008.67,18.1,24.4,04.2,02.8,0677.7,31.0
2021-06-23T06:56:00Z,00040200,00000000,0001.26,0001.28,0000.62,0000.16,0000.18,-000.02,0008.54,0007.11,0005.51,18.1,24.4,04.3,02.9,0677.7,31.0
2021-06-23T06:57:00Z,00040200,40000000,,,,,,,0001.59,0002.32,0001.55,18.1,24.4,04.9,03.3,0677.6,31.0
2021-06-23T06:58:00Z,00040200,60000000,,,,,,,-000.08,-000.23,0000.06,17.9,24.5,04.2,02.8,0676.7,31.0
2021-06-23T06:59:00Z,00040200,20000000,,,,,,,-000.17,-000.42,-000.45,17.8,24.6,04.2,02.8,0676.7,31.0
